Flag for Germany Weather past 2 weeks in Filderstadt, Baden-Württemberg, Germany

Now
68 °F

Partly sunny.


Feels Like: 68 °F
Forecast: 52 / 75 °F
Wind: 1 mph from Northeast

Location: Stuttgart-Echterdingen

Current Time: Sep 16, 2014 at 1:48:18 PM

Latest Report: Sep 16, 2014 at 1:00 PM


Visibility: 13 mi

Pressure: 29.97 "Hg

Humidity: 72%

Dew point: 59 °F

Location of FilderstadtLocation

Historic Weather in Filderstadt — Graph

°F

Filderstadt temperature yesterday

Maximum temperature yesterday: 68 °F (at 5:00 PM)
Minimum temperature yesterday: 51 °F (at 4:00 AM)
Average temperature yesterday: 60 °F

Past Weeks' High & Low Weather Summary

 TemperatureHumidityPressure
High76 °F (Sep 6, 3:00 PM)99% (Sep 5, 8:00 AM)30.19 "Hg (Sep 5, 8:00 AM)
Low51 °F (Sep 16, 7:00 AM)51% (Sep 9, 4:00 PM)29.86 "Hg (Sep 6, 4:00 PM)
Average60 °F84%30.04 "Hg
* Reported Sep 1 12:00 Noon — Sep 16 12:00 Noon, Filderstadt, Weather by CustomWeather, © 2014

Note: Actual official high and low records may vary slightly from our data, if they occured in-between our weather recording intervals... More about our weather records

Advertising

Filderstadt weather history for previous 24 hours

 ConditionsComfort  
Time TempWeatherWind HumidityBarometerVisibility
12:00 PM
Sep 16
65 °FPartly sunny.1 mph75%29.99 "Hg12 mi
11:00 AM64 °FPartly sunny.1 mph80%30.00 "Hg11 mi
10:00 AM60 °FScattered clouds.1 mph86%30.01 "Hg7 mi
9:00 AM54 °FFog.1 mph95%30.02 "Hg4 mi
8:00 AM51 °FFog.1 mph97%30.03 "Hg3 mi
7:00 AM51 °FFog.No wind97%30.02 "Hg3 mi
6:00 AM52 °FFog.1 mph97%30.01 "Hg4 mi
4:00 AM52 °FFog.1 mph97%30.01 "Hg6 mi
3:00 AM53 °FPassing clouds.1 mph96%30.01 "Hg6 mi
2:00 AM54 °FPassing clouds.1 mph93%30.01 "Hg7 mi
1:00 AM55 °FPassing clouds.1 mph94%30.01 "Hg9 mi
12:00 AM57 °FPassing clouds.1 mph90%30.01 "Hg11 mi
11:00 PM
Sep 15
58 °FPassing clouds.1 mph90%30.01 "Hg12 mi
10:00 PM59 °FPassing clouds.1 mph90%30.00 "Hg16 mi
9:00 PM60 °FPassing clouds.3 mph87%29.99 "Hg16 mi
8:00 PM63 °FPassing clouds.3 mph81%29.97 "Hg16 mi
7:00 PM65 °FPassing clouds.3 mph75%29.96 "Hg19 mi
6:00 PM67 °FScattered clouds.3 mph69%29.96 "Hg19 mi
5:00 PM68 °FScattered clouds.2 mph68%29.96 "Hg19 mi
4:00 PM67 °FPartly sunny.3 mph70%29.97 "Hg19 mi
3:00 PM66 °FOvercast.2 mph74%29.99 "Hg19 mi
2:00 PM65 °FOvercast.2 mph75%29.99 "Hg11 mi
1:00 PM64 °FOvercast.2 mph81%30.01 "Hg8 mi
Weather by CustomWeather, © 2014

See weather overviewHow to use our weather pages